Time,TemperatureF,DewpointF,PressureIn,WindDirection,WindDirectionDegrees,WindSpeedMPH,WindSpeedGustMPH,Humidity,HourlyPrecipIn,Conditions,Clouds,dailyrainin,SoftwareType,DateUTC
2013-06-19 06:25:00,59.0,56.1,30.08,ENE,74,2.0,5.0,90,0.00,,,0.00,Wunderground v.1.15,2013-06-19 11:25:00,
2013-06-19 06:30:00,59.2,56.0,30.08,ENE,70,3.0,5.0,89,0.00,,,0.00,Wunderground v.1.15,2013-06-19 11:30:00,
2013-06-19 06:35:00,59.5,56.3,30.09,East,92,3.0,5.0,89,0.00,,,0.00,Wunderground v.1.15,2013-06-19 11:35:00,
2013-06-19 06:40:00,59.7,56.1,30.09,ENE,71,3.0,5.0,88,0.00,,,0.00,Wunderground v.1.15,2013-06-19 11:40:00,
2013-06-19 06:45:00,60.0,56.4,30.10,East,80,2.0,2.0,88,0.00,,,0.00,Wunderground v.1.15,2013-06-19 11:45:00,
2013-06-19 06:50:00,60.2,56.6,30.10,ENE,76,2.0,2.0,88,0.00,,,0.00,Wunderground v.1.15,2013-06-19 11:50:00,
2013-06-19 06:55:00,60.5,56.6,30.10,ENE,74,2.0,2.0,87,0.00,,,0.00,Wunderground v.1.15,2013-06-19 11:55:00,
2013-06-19 07:00:00,60.7,57.1,30.10,East,96,2.0,5.0,88,0.00,,,0.00,Wunderground v.1.15,2013-06-19 12:00:00,
2013-06-19 07:10:00,61.6,57.7,30.11,East,95,3.0,3.0,87,0.00,,,0.00,Wunderground v.1.15,2013-06-19 12:10:00,
2013-06-19 07:15:00,62.5,58.6,30.11,East,79,3.0,6.0,87,0.00,,,0.00,Wunderground v.1.15,2013-06-19 12:15:00,
2013-06-19 07:20:00,63.3,58.7,30.11,East,81,3.0,3.0,85,0.00,,,0.00,Wunderground v.1.15,2013-06-19 12:20:00,
2013-06-19 07:25:00,63.8,58.9,30.11,East,81,3.0,6.0,84,0.00,,,0.00,Wunderground v.1.15,2013-06-19 12:25:00,
2013-06-19 07:30:00,64.0,58.7,30.11,ENE,76,3.0,4.0,83,0.00,,,0.00,Wunderground v.1.15,2013-06-19 12:30:00,
2013-06-19 07:35:00,64.3,59.0,30.11,East,88,4.0,4.0,83,0.00,,,0.00,Wunderground v.1.15,2013-06-19 12:35:00,
2013-06-19 07:40:00,64.8,59.5,30.11,East,88,3.0,3.0,83,0.00,,,0.00,Wunderground v.1.15,2013-06-19 12:40:00,
2013-06-19 07:45:00,65.2,59.6,30.11,East,88,3.0,3.0,82,0.00,,,0.00,Wunderground v.1.15,2013-06-19 12:45:00,
2013-06-19 07:50:00,65.4,59.8,30.11,East,83,3.0,3.0,82,0.00,,,0.00,Wunderground v.1.15,2013-06-19 12:50:00,
2013-06-19 07:55:00,65.7,60.1,30.11,ENE,66,3.0,7.0,82,0.00,,,0.00,Wunderground v.1.15,2013-06-19 12:55:00,
2013-06-19 08:00:00,65.9,59.9,30.11,ENE,76,4.0,4.0,81,0.00,,,0.00,Wunderground v.1.15,2013-06-19 13:00:00,
2013-06-19 08:10:00,66.8,60.4,30.11,East,88,2.0,2.0,80,0.00,,,0.00,Wunderground v.1.15,2013-06-19 13:10:00,
2013-06-19 08:15:00,67.2,60.5,30.11,ENE,74,2.0,4.0,79,0.00,,,0.00,Wunderground v.1.15,2013-06-19 13:15:00,
2013-06-19 08:20:00,67.5,61.1,30.11,East,82,2.0,2.0,80,0.00,,,0.00,Wunderground v.1.15,2013-06-19 13:20:00,
2013-06-19 08:25:00,67.5,60.4,30.11,East,85,3.0,6.0,78,0.00,,,0.00,Wunderground v.1.15,2013-06-19 13:25:00,
2013-06-19 08:30:00,67.6,60.9,30.11,ENE,69,4.0,4.0,79,0.00,,,0.00,Wunderground v.1.15,2013-06-19 13:30:00,
2013-06-19 08:35:00,67.9,60.8,30.11,East,84,4.0,4.0,78,0.00,,,0.00,Wunderground v.1.15,2013-06-19 13:35:00,
2013-06-19 08:40:00,68.0,60.9,30.11,ESE,111,4.0,4.0,78,0.00,,,0.00,Wunderground v.1.15,2013-06-19 13:40:00,
2013-06-19 08:45:00,68.4,61.3,30.11,East,84,3.0,4.0,78,0.00,,,0.00,Wunderground v.1.15,2013-06-19 13:45:00,
2013-06-19 08:50:00,68.4,60.9,30.11,East,83,3.0,3.0,77,0.00,,,0.00,Wunderground v.1.15,2013-06-19 13:50:00,
2013-06-19 08:55:00,68.6,61.5,30.11,East,86,3.0,3.0,78,0.00,,,0.00,Wunderground v.1.15,2013-06-19 13:55:00,
2013-06-19 09:00:00,68.8,60.9,30.11,East,90,2.0,3.0,76,0.00,,,0.00,Wunderground v.1.15,2013-06-19 14:00:00,
2013-06-19 09:05:00,68.8,60.6,30.11,ENE,76,3.0,3.0,75,0.00,,,0.00,Wunderground v.1.15,2013-06-19 14:05:00,
2013-06-19 09:10:00,68.8,60.9,30.11,SE,128,3.0,3.0,76,0.00,,,0.00,Wunderground v.1.15,2013-06-19 14:10:00,
2013-06-19 09:15:00,68.8,60.9,30.12,NE,52,2.0,3.0,76,0.00,,,0.00,Wunderground v.1.15,2013-06-19 14:15:00,
2013-06-19 09:20:00,68.9,61.0,30.12,NE,43,2.0,2.0,76,0.00,,,0.00,Wunderground v.1.15,2013-06-19 14:20:00,
2013-06-19 09:25:00,69.3,61.0,30.12,East,99,3.0,3.0,75,0.00,,,0.00,Wunderground v.1.15,2013-06-19 14:25:00,
2013-06-19 09:30:00,69.3,60.7,30.11,ENE,67,3.0,3.0,74,0.00,,,0.00,Wunderground v.1.15,2013-06-19 14:30:00,
2013-06-19 09:35:00,69.6,61.3,30.11,ENE,71,3.0,3.0,75,0.00,,,0.00,Wunderground v.1.15,2013-06-19 14:35:00,
2013-06-19 09:40:00,70.0,61.7,30.11,ENE,74,2.0,2.0,75,0.00,,,0.00,Wunderground v.1.15,2013-06-19 14:40:00,
2013-06-19 09:45:00,70.6,62.3,30.12,ENE,60,1.0,2.0,75,0.00,,,0.00,Wunderground v.1.15,2013-06-19 14:45:00,
2013-06-19 09:50:00,70.8,61.7,30.11,East,82,1.0,2.0,73,0.00,,,0.00,Wunderground v.1.15,2013-06-19 14:50:00,
2013-06-19 09:55:00,70.8,62.1,30.12,ENE,73,2.0,4.0,74,0.00,,,0.00,Wunderground v.1.15,2013-06-19 14:55:00,
2013-06-19 10:00:00,70.9,62.2,30.12,NE,40,2.0,2.0,74,0.00,,,0.00,Wunderground v.1.15,2013-06-19 15:00:00,
2013-06-19 10:05:00,71.2,62.1,30.12,East,93,2.0,2.0,73,0.00,,,0.00,Wunderground v.1.15,2013-06-19 15:05:00,
2013-06-19 10:10:00,71.3,61.4,30.12,East,87,2.0,2.0,71,0.00,,,0.00,Wunderground v.1.15,2013-06-19 15:10:00,
2013-06-19 10:15:00,71.2,61.7,30.12,ENE,73,3.0,4.0,72,0.00,,,0.00,Wunderground v.1.15,2013-06-19 15:15:00,
2013-06-19 10:20:00,71.4,62.3,30.12,ENE,73,2.0,2.0,73,0.00,,,0.00,Wunderground v.1.15,2013-06-19 15:20:00,
2013-06-19 10:25:00,72.0,62.1,30.12,ENE,66,1.0,2.0,71,0.00,,,0.00,Wunderground v.1.15,2013-06-19 15:25:00,
2013-06-19 10:30:00,72.5,63.0,30.12,ENE,57,1.0,1.0,72,0.00,,,0.00,Wunderground v.1.15,2013-06-19 15:30:00,
2013-06-19 10:35:00,73.1,62.3,30.12,East,81,1.0,2.0,69,0.00,,,0.00,Wunderground v.1.15,2013-06-19 15:35:00,
2013-06-19 10:40:00,73.5,62.3,30.12,South,184,1.0,1.0,68,0.00,,,0.00,Wunderground v.1.15,2013-06-19 15:40:00,
2013-06-19 10:45:00,73.8,63.0,30.11,East,82,2.0,2.0,69,0.00,,,0.00,Wunderground v.1.15,2013-06-19 15:45:00,
2013-06-19 10:50:00,74.0,62.3,30.11,ENE,78,2.0,3.0,67,0.00,,,0.00,Wunderground v.1.15,2013-06-19 15:50:00,
2013-06-19 10:55:00,73.9,62.2,30.11,East,88,3.0,3.0,67,0.00,,,0.00,Wunderground v.1.15,2013-06-19 15:55:00,
2013-06-19 11:00:00,74.1,62.9,30.11,SSW,200,2.0,3.0,68,0.00,,,0.00,Wunderground v.1.15,2013-06-19 16:00:00,
2013-06-19 11:05:00,74.4,63.6,30.11,SE,136,1.0,3.0,69,0.00,,,0.00,Wunderground v.1.15,2013-06-19 16:05:00,
2013-06-19 11:10:00,74.8,61.8,30.11,SW,229,2.0,2.0,64,0.00,,,0.00,Wunderground v.1.15,2013-06-19 16:10:00,
2013-06-19 11:15:00,75.2,63.1,30.11,ENE,76,1.0,4.0,66,0.00,,,0.00,Wunderground v.1.15,2013-06-19 16:15:00,
2013-06-19 11:20:00,75.3,62.7,30.11,South,190,2.0,2.0,65,0.00,,,0.00,Wunderground v.1.15,2013-06-19 16:20:00,
2013-06-19 11:25:00,75.5,62.5,30.11,SW,227,2.0,2.0,64,0.00,,,0.00,Wunderground v.1.15,2013-06-19 16:25:00,
2013-06-19 11:30:00,75.5,62.0,30.11,ENE,72,1.0,2.0,63,0.00,,,0.00,Wunderground v.1.15,2013-06-19 16:30:00,
2013-06-19 11:35:00,75.7,64.0,30.11,East,93,2.0,5.0,67,0.00,,,0.00,Wunderground v.1.15,2013-06-19 16:35:00,
2013-06-19 11:40:00,75.9,62.8,30.11,ENE,76,2.0,2.0,64,0.00,,,0.00,Wunderground v.1.15,2013-06-19 16:40:00,
2013-06-19 11:45:00,76.0,63.8,30.10,ENE,69,2.0,2.0,66,0.00,,,0.00,Wunderground v.1.15,2013-06-19 16:45:00,
2013-06-19 11:50:00,76.2,63.1,30.10,East,80,2.0,5.0,64,0.00,,,0.00,Wunderground v.1.15,2013-06-19 16:50:00,
2013-06-19 11:55:00,76.1,62.6,30.10,East,81,3.0,5.0,63,0.00,,,0.00,Wunderground v.1.15,2013-06-19 16:55:00,
2013-06-19 12:00:00,76.2,62.7,30.10,ENE,76,4.0,4.0,63,0.00,,,0.00,Wunderground v.1.15,2013-06-19 17:00:00,
2013-06-19 12:05:00,76.0,63.4,30.09,ENE,77,2.0,4.0,65,0.00,,,0.00,Wunderground v.1.15,2013-06-19 17:05:00,
2013-06-19 12:10:00,76.4,62.4,30.10,SSW,203,2.0,2.0,62,0.00,,,0.00,Wunderground v.1.15,2013-06-19 17:10:00,
2013-06-19 12:15:00,76.5,63.0,30.10,ESE,117,2.0,2.0,63,0.00,,,0.00,Wunderground v.1.15,2013-06-19 17:15:00,
2013-06-19 12:20:00,76.7,62.7,30.09,East,95,2.0,2.0,62,0.00,,,0.00,Wunderground v.1.15,2013-06-19 17:20:00,
2013-06-19 12:25:00,76.5,63.0,30.09,East,82,2.0,6.0,63,0.00,,,0.00,Wunderground v.1.15,2013-06-19 17:25:00,
2013-06-19 12:30:00,76.7,64.0,30.09,ENE,72,2.0,4.0,65,0.00,,,0.00,Wunderground v.1.15,2013-06-19 17:30:00,
2013-06-19 12:35:00,77.1,63.5,30.09,East,96,2.0,6.0,63,0.00,,,0.00,Wunderground v.1.15,2013-06-19 17:35:00,
2013-06-19 12:40:00,76.6,62.1,30.09,East,86,2.0,2.0,61,0.00,,,0.00,Wunderground v.1.15,2013-06-19 17:40:00,
2013-06-19 12:45:00,76.9,64.2,30.09,NNW,344,2.0,2.0,65,0.00,,,0.00,Wunderground v.1.15,2013-06-19 17:45:00,
2013-06-19 12:50:00,77.1,62.6,30.09,ENE,69,1.0,2.0,61,0.00,,,0.00,Wunderground v.1.15,2013-06-19 17:50:00,
2013-06-19 13:00:00,76.7,62.7,30.08,ENE,69,2.0,2.0,62,0.00,,,0.00,Wunderground v.1.15,2013-06-19 18:00:00,
2013-06-19 13:05:00,76.8,62.8,30.08,West,261,1.0,2.0,62,0.00,,,0.00,Wunderground v.1.15,2013-06-19 18:05:00,
2013-06-19 13:10:00,77.2,62.2,30.08,SSW,200,1.0,1.0,60,0.00,,,0.00,Wunderground v.1.15,2013-06-19 18:10:00,
2013-06-19 13:15:00,77.8,63.3,30.08,West,266,1.0,1.0,61,0.00,,,0.00,Wunderground v.1.15,2013-06-19 18:15:00,
2013-06-19 13:20:00,78.4,62.9,30.08,ENE,74,1.0,2.0,59,0.00,,,0.00,Wunderground v.1.15,2013-06-19 18:20:00,
2013-06-19 13:25:00,78.5,62.0,30.08,East,87,3.0,6.0,57,0.00,,,0.00,Wunderground v.1.15,2013-06-19 18:25:00,
2013-06-19 13:30:00,78.4,62.4,30.07,East,92,3.0,5.0,58,0.00,,,0.00,Wunderground v.1.15,2013-06-19 18:30:00,
2013-06-19 13:35:00,78.7,63.6,30.07,West,271,2.0,5.0,60,0.00,,,0.00,Wunderground v.1.15,2013-06-19 18:35:00,
2013-06-19 13:40:00,79.1,64.0,30.08,East,87,1.0,3.0,60,0.00,,,0.00,Wunderground v.1.15,2013-06-19 18:40:00,
2013-06-19 13:45:00,79.3,61.2,30.07,NE,42,1.0,3.0,54,0.00,,,0.00,Wunderground v.1.15,2013-06-19 18:45:00,
2013-06-19 13:50:00,79.7,63.1,30.07,NE,55,1.0,2.0,57,0.00,,,0.00,Wunderground v.1.15,2013-06-19 18:50:00,
2013-06-19 13:55:00,80.1,63.0,30.07,SSW,209,1.0,2.0,56,0.00,,,0.00,Wunderground v.1.15,2013-06-19 18:55:00,
2013-06-19 14:00:00,80.0,62.4,30.07,SSW,206,1.0,1.0,55,0.00,,,0.00,Wunderground v.1.15,2013-06-19 19:00:00,
2013-06-19 14:05:00,80.3,65.1,30.07,SW,217,1.0,3.0,60,0.00,,,0.00,Wunderground v.1.15,2013-06-19 19:05:00,
2013-06-19 14:10:00,80.5,65.3,30.07,SW,230,1.0,2.0,60,0.00,,,0.00,Wunderground v.1.15,2013-06-19 19:10:00,
2013-06-19 14:15:00,80.6,63.5,30.07,East,79,1.0,2.0,56,0.00,,,0.00,Wunderground v.1.15,2013-06-19 19:15:00,
2013-06-19 14:20:00,80.6,62.9,30.07,East,82,1.0,5.0,55,0.00,,,0.00,Wunderground v.1.15,2013-06-19 19:20:00,
2013-06-19 14:25:00,80.1,63.0,30.07,ENE,77,1.0,5.0,56,0.00,,,0.00,Wunderground v.1.15,2013-06-19 19:25:00,
2013-06-19 14:30:00,80.1,64.0,30.07,North,351,1.0,1.0,58,0.00,,,0.00,Wunderground v.1.15,2013-06-19 19:30:00,
2013-06-19 14:35:00,80.4,63.3,30.07,NNW,348,1.0,1.0,56,0.00,,,0.00,Wunderground v.1.15,2013-06-19 19:35:00,
2013-06-19 14:40:00,80.3,63.2,30.07,ENE,74,1.0,1.0,56,0.00,,,0.00,Wunderground v.1.15,2013-06-19 19:40:00,
2013-06-19 14:45:00,80.3,63.2,30.07,ENE,57,1.0,1.0,56,0.00,,,0.00,Wunderground v.1.15,2013-06-19 19:45:00,
2013-06-19 14:50:00,80.5,62.8,30.07,East,85,0.0,0.0,55,0.00,,,0.00,Wunderground v.1.15,2013-06-19 19:50:00,
2013-06-19 14:55:00,80.4,62.2,30.07,East,91,1.0,2.0,54,0.00,,,0.00,Wunderground v.1.15,2013-06-19 19:55:00,
2013-06-19 15:00:00,79.8,61.7,30.07,ENE,61,2.0,2.0,54,0.00,,,0.00,Wunderground v.1.15,2013-06-19 20:00:00,
2013-06-19 15:05:00,80.1,62.5,30.06,NNE,19,2.0,2.0,55,0.00,,,0.00,Wunderground v.1.15,2013-06-19 20:05:00,
2013-06-19 15:10:00,80.7,62.5,30.06,SE,124,1.0,1.0,54,0.00,,,0.00,Wunderground v.1.15,2013-06-19 20:10:00,
2013-06-19 15:15:00,81.1,63.4,30.06,East,86,1.0,1.0,55,0.00,,,0.00,Wunderground v.1.15,2013-06-19 20:15:00,
2013-06-19 15:20:00,80.9,63.2,30.05,East,86,1.0,1.0,55,0.00,,,0.00,Wunderground v.1.15,2013-06-19 20:20:00,
2013-06-19 15:25:00,80.4,62.8,30.05,ENE,74,2.0,2.0,55,0.00,,,0.00,Wunderground v.1.15,2013-06-19 20:25:00,
2013-06-19 15:30:00,80.1,63.0,30.05,ENE,72,2.0,2.0,56,0.00,,,0.00,Wunderground v.1.15,2013-06-19 20:30:00,
2013-06-19 15:35:00,79.9,63.8,30.05,NE,55,2.0,2.0,58,0.00,,,0.00,Wunderground v.1.15,2013-06-19 20:35:00,
2013-06-19 15:40:00,80.2,62.6,30.05,East,96,2.0,2.0,55,0.00,,,0.00,Wunderground v.1.15,2013-06-19 20:40:00,
2013-06-19 15:45:00,80.4,62.2,30.05,East,96,2.0,2.0,54,0.00,,,0.00,Wunderground v.1.15,2013-06-19 20:45:00,
2013-06-19 15:50:00,80.7,62.5,30.05,East,96,1.0,1.0,54,0.00,,,0.00,Wunderground v.1.15,2013-06-19 20:50:00,
2013-06-19 15:55:00,80.8,63.1,30.05,ENE,76,2.0,2.0,55,0.00,,,0.00,Wunderground v.1.15,2013-06-19 20:55:00,
2013-06-19 16:00:00,81.3,63.1,30.05,NE,50,2.0,2.0,54,0.00,,,0.00,Wunderground v.1.15,2013-06-19 21:00:00,
2013-06-19 16:05:00,81.6,63.3,30.05,NE,50,1.0,2.0,54,0.00,,,0.00,Wunderground v.1.15,2013-06-19 21:05:00,
2013-06-19 16:10:00,81.9,61.4,30.05,ESE,105,0.0,3.0,50,0.00,,,0.00,Wunderground v.1.15,2013-06-19 21:10:00,
2013-06-19 16:15:00,81.8,61.3,30.05,East,80,1.0,5.0,50,0.00,,,0.00,Wunderground v.1.15,2013-06-19 21:15:00,
2013-06-19 16:20:00,81.1,61.8,30.05,ENE,76,2.0,5.0,52,0.00,,,0.00,Wunderground v.1.15,2013-06-19 21:20:00,
2013-06-19 16:25:00,80.5,61.8,30.05,East,89,3.0,5.0,53,0.00,,,0.00,Wunderground v.1.15,2013-06-19 21:25:00,
2013-06-19 16:30:00,80.4,61.7,30.05,East,86,3.0,3.0,53,0.00,,,0.00,Wunderground v.1.15,2013-06-19 21:30:00,
2013-06-19 16:35:00,80.3,61.6,30.04,ENE,78,3.0,3.0,53,0.00,,,0.00,Wunderground v.1.15,2013-06-19 21:35:00,
2013-06-19 16:40:00,80.6,61.3,30.04,East,86,2.0,2.0,52,0.00,,,0.00,Wunderground v.1.15,2013-06-19 21:40:00,
2013-06-19 16:45:00,80.6,60.8,30.04,East,86,2.0,3.0,51,0.00,,,0.00,Wunderground v.1.15,2013-06-19 21:45:00,
2013-06-19 16:50:00,80.8,62.1,30.04,ENE,76,2.0,3.0,53,0.00,,,0.00,Wunderground v.1.15,2013-06-19 21:50:00,
2013-06-19 16:55:00,81.0,63.3,30.04,SSW,202,1.0,3.0,55,0.00,,,0.00,Wunderground v.1.15,2013-06-19 21:55:00,
2013-06-19 17:00:00,81.2,61.4,30.04,ENE,76,1.0,3.0,51,0.00,,,0.00,Wunderground v.1.15,2013-06-19 22:00:00,
2013-06-19 17:05:00,81.0,62.3,30.04,ESE,102,2.0,3.0,53,0.00,,,0.00,Wunderground v.1.15,2013-06-19 22:05:00,
2013-06-19 17:10:00,80.8,61.5,30.04,East,101,2.0,2.0,52,0.00,,,0.00,Wunderground v.1.15,2013-06-19 22:10:00,
2013-06-19 17:15:00,80.9,61.6,30.04,East,85,1.0,2.0,52,0.00,,,0.00,Wunderground v.1.15,2013-06-19 22:15:00,
2013-06-19 17:20:00,81.1,63.4,30.04,East,85,1.0,2.0,55,0.00,,,0.00,Wunderground v.1.15,2013-06-19 22:20:00,
2013-06-19 17:25:00,80.8,62.1,30.04,East,81,1.0,2.0,53,0.00,,,0.00,Wunderground v.1.15,2013-06-19 22:25:00,
2013-06-19 17:30:00,80.8,62.6,30.04,ENE,74,1.0,1.0,54,0.00,,,0.00,Wunderground v.1.15,2013-06-19 22:30:00,
2013-06-19 17:35:00,80.8,62.6,30.04,East,86,2.0,2.0,54,0.00,,,0.00,Wunderground v.1.15,2013-06-19 22:35:00,
2013-06-19 17:40:00,80.7,62.0,30.04,East,86,2.0,2.0,53,0.00,,,0.00,Wunderground v.1.15,2013-06-19 22:40:00,
2013-06-19 17:45:00,80.8,62.1,30.04,East,86,1.0,2.0,53,0.00,,,0.00,Wunderground v.1.15,2013-06-19 22:45:00,
2013-06-19 17:50:00,80.8,62.6,30.04,East,85,1.0,1.0,54,0.00,,,0.00,Wunderground v.1.15,2013-06-19 22:50:00,
2013-06-19 17:55:00,80.8,62.6,30.04,East,85,1.0,1.0,54,0.00,,,0.00,Wunderground v.1.15,2013-06-19 22:55:00,
2013-06-19 18:00:00,80.7,62.5,30.04,East,83,1.0,2.0,54,0.00,,,0.00,Wunderground v.1.15,2013-06-19 23:00:00,
2013-06-19 18:10:00,80.9,62.2,30.04,ENE,78,1.0,1.0,53,0.00,,,0.00,Wunderground v.1.15,2013-06-19 23:10:00,
2013-06-19 18:15:00,80.7,62.0,30.04,ENE,78,1.0,1.0,53,0.00,,,0.00,Wunderground v.1.15,2013-06-19 23:15:00,
2013-06-19 18:20:00,80.4,62.8,30.04,ENE,78,1.0,3.0,55,0.00,,,0.00,Wunderground v.1.15,2013-06-19 23:20:00,
2013-06-19 18:25:00,80.1,62.5,30.04,ENE,70,2.0,3.0,55,0.00,,,0.00,Wunderground v.1.15,2013-06-19 23:25:00,
2013-06-19 18:30:00,80.0,61.9,30.04,ENE,70,2.0,2.0,54,0.00,,,0.00,Wunderground v.1.15,2013-06-19 23:30:00,
2013-06-19 18:40:00,80.0,62.4,30.05,ENE,70,1.0,1.0,55,0.00,,,0.00,Wunderground v.1.15,2013-06-19 23:40:00,
2013-06-19 18:45:00,79.9,62.3,30.05,ENE,70,0.0,1.0,55,0.00,,,0.00,Wunderground v.1.15,2013-06-19 23:45:00,
2013-06-19 18:50:00,79.6,61.5,30.05,ENE,69,1.0,1.0,54,0.00,,,0.00,Wunderground v.1.15,2013-06-19 23:50:00,
2013-06-19 18:55:00,79.4,61.8,30.05,ENE,75,2.0,2.0,55,0.00,,,0.00,Wunderground v.1.15,2013-06-19 23:55:00,
2013-06-19 19:00:00,79.2,62.1,30.05,East,83,2.0,3.0,56,0.00,,,0.00,Wunderground v.1.15,2013-06-20 00:00:00,
2013-06-19 19:05:00,78.9,61.9,30.05,East,83,1.0,3.0,56,0.00,,,0.00,Wunderground v.1.15,2013-06-20 00:05:00,
2013-06-19 19:10:00,78.5,62.0,30.05,ENE,76,1.0,4.0,57,0.00,,,0.00,Wunderground v.1.15,2013-06-20 00:10:00,
2013-06-19 19:15:00,78.2,61.7,30.05,ENE,76,1.0,4.0,57,0.00,,,0.00,Wunderground v.1.15,2013-06-20 00:15:00,
2013-06-19 19:20:00,77.9,60.9,30.05,East,87,2.0,2.0,56,0.00,,,0.00,Wunderground v.1.15,2013-06-20 00:20:00,
2013-06-19 19:25:00,77.6,61.2,30.05,East,85,2.0,2.0,57,0.00,,,0.00,Wunderground v.1.15,2013-06-20 00:25:00,
2013-06-19 19:30:00,77.4,61.0,30.05,ENE,67,2.0,2.0,57,0.00,,,0.00,Wunderground v.1.15,2013-06-20 00:30:00,
2013-06-19 19:35:00,77.3,60.9,30.05,ENE,69,2.0,2.0,57,0.00,,,0.00,Wunderground v.1.15,2013-06-20 00:35:00,
2013-06-19 19:40:00,77.2,60.8,30.05,ENE,69,1.0,1.0,57,0.00,,,0.00,Wunderground v.1.15,2013-06-20 00:40:00,
2013-06-19 19:45:00,77.0,60.6,30.05,East,82,1.0,2.0,57,0.00,,,0.00,Wunderground v.1.15,2013-06-20 00:45:00,
2013-06-19 19:50:00,76.8,60.9,30.05,East,82,2.0,2.0,58,0.00,,,0.00,Wunderground v.1.15,2013-06-20 00:50:00,
2013-06-19 19:55:00,76.5,60.6,30.06,ENE,78,1.0,2.0,58,0.00,,,0.00,Wunderground v.1.15,2013-06-20 00:55:00,
2013-06-19 20:00:00,76.3,60.9,30.05,ENE,70,2.0,2.0,59,0.00,,,0.00,Wunderground v.1.15,2013-06-20 01:00:00,
2013-06-19 20:05:00,76.1,61.2,30.05,ENE,72,2.0,2.0,60,0.00,,,0.00,Wunderground v.1.15,2013-06-20 01:05:00,
2013-06-19 20:15:00,75.6,60.7,30.06,East,83,2.0,3.0,60,0.00,,,0.00,Wunderground v.1.15,2013-06-20 01:15:00,
2013-06-19 20:20:00,75.2,60.4,30.05,ENE,78,2.0,2.0,60,0.00,,,0.00,Wunderground v.1.15,2013-06-20 01:20:00,
2013-06-19 20:25:00,75.0,60.6,30.05,East,79,2.0,3.0,61,0.00,,,0.00,Wunderground v.1.15,2013-06-20 01:25:00,
2013-06-19 20:30:00,74.7,60.4,30.06,ESE,108,3.0,5.0,61,0.00,,,0.00,Wunderground v.1.15,2013-06-20 01:30:00,
2013-06-19 20:35:00,74.4,59.6,30.06,East,83,4.0,5.0,60,0.00,,,0.00,Wunderground v.1.15,2013-06-20 01:35:00,
2013-06-19 20:40:00,73.9,59.6,30.06,East,83,4.0,4.0,61,0.00,,,0.00,Wunderground v.1.15,2013-06-20 01:40:00,
2013-06-19 20:50:00,73.2,58.9,30.06,East,84,4.0,4.0,61,0.00,,,0.00,Wunderground v.1.15,2013-06-20 01:50:00,
2013-06-19 20:55:00,72.9,59.1,30.06,East,86,4.0,5.0,62,0.00,,,0.00,Wunderground v.1.15,2013-06-20 01:55:00,
2013-06-19 21:00:00,72.5,58.7,30.06,East,87,4.0,4.0,62,0.00,,,0.00,Wunderground v.1.15,2013-06-20 02:00:00,
2013-06-19 21:05:00,72.2,58.9,30.06,East,86,4.0,5.0,63,0.00,,,0.00,Wunderground v.1.15,2013-06-20 02:05:00,
2013-06-19 21:10:00,72.0,59.2,30.07,East,92,3.0,3.0,64,0.00,,,0.00,Wunderground v.1.15,2013-06-20 02:10:00,
2013-06-19 21:15:00,71.7,58.4,30.06,East,86,3.0,3.0,63,0.00,,,0.00,Wunderground v.1.15,2013-06-20 02:15:00,
2013-06-19 21:20:00,71.6,58.8,30.06,ENE,78,4.0,4.0,64,0.00,,,0.00,Wunderground v.1.15,2013-06-20 02:20:00,
2013-06-19 21:25:00,71.4,58.6,30.07,East,79,4.0,4.0,64,0.00,,,0.00,Wunderground v.1.15,2013-06-20 02:25:00,
2013-06-19 21:30:00,71.2,58.4,30.07,ENE,69,3.0,3.0,64,0.00,,,0.00,Wunderground v.1.15,2013-06-20 02:30:00,
2013-06-19 21:35:00,70.9,58.1,30.07,East,84,3.0,5.0,64,0.00,,,0.00,Wunderground v.1.15,2013-06-20 02:35:00,
2013-06-19 21:40:00,70.7,57.9,30.07,East,90,3.0,3.0,64,0.00,,,0.00,Wunderground v.1.15,2013-06-20 02:40:00,
2013-06-19 21:45:00,70.6,58.3,30.08,ENE,78,3.0,3.0,65,0.00,,,0.00,Wunderground v.1.15,2013-06-20 02:45:00,
2013-06-19 21:50:00,70.5,58.2,30.08,East,79,3.0,3.0,65,0.00,,,0.00,Wunderground v.1.15,2013-06-20 02:50:00,
2013-06-19 21:55:00,70.3,58.4,30.08,East,84,3.0,3.0,66,0.00,,,0.00,Wunderground v.1.15,2013-06-20 02:55:00,
2013-06-19 22:00:00,70.0,58.1,30.08,East,92,2.0,3.0,66,0.00,,,0.00,Wunderground v.1.15,2013-06-20 03:00:00,